owner,sensor,date,latitude,longitude,air_pressure(mBar),qcFlag 
TABS,ioos:station:wmo:42043:1,2019-02-01T00:00:00Z,28.9818,-94.9186,1017.59,11111222 
TABS,ioos:station:wmo:42043:1,2019-02-01T00:30:00Z,28.9818,-94.9186,1018.8,11111222 
TABS,ioos:station:wmo:42043:1,2019-02-01T01:00:00Z,28.9818,-94.9186,1019.37,11111222 
TABS,ioos:station:wmo:42043:1,2019-02-01T01:30:00Z,28.9818,-94.9186,1018.02,11111222 
TABS,ioos:station:wmo:42043:1,2019-02-01T02:00:00Z,28.9818,-94.9186,1018.16,11111222 
TABS,ioos:station:wmo:42043:1,2019-02-01T02:30:00Z,28.9818,-94.9186,1017.86,11111222 
TABS,ioos:station:wmo:42043:1,2019-02-01T03:00:00Z,28.9818,-94.9186,1017.36,11111222 
TABS,ioos:station:wmo:42043:1,2019-02-01T03:30:00Z,28.9818,-94.9186,1017.67,11111222 
TABS,ioos:station:wmo:42043:1,2019-02-01T04:00:00Z,28.9818,-94.9186,1017.74,11111222 
TABS,ioos:station:wmo:42043:1,2019-02-01T04:30:00Z,28.9818,-94.9186,1017.17,11111222 
TABS,ioos:station:wmo:42043:1,2019-02-01T05:00:00Z,28.9818,-94.9186,1016.89,11111222 
TABS,ioos:station:wmo:42043:1,2019-02-01T05:30:00Z,28.9818,-94.9186,1016.37,11111222 
TABS,ioos:station:wmo:42043:1,2019-02-01T06:00:00Z,28.9818,-94.9186,1016.84,11111222 
TABS,ioos:station:wmo:42043:1,2019-02-01T06:30:00Z,28.9818,-94.9186,1017.22,11111222 
TABS,ioos:station:wmo:42043:1,2019-02-01T07:00:00Z,28.9818,-94.9186,1017.08,11111222 
TABS,ioos:station:wmo:42043:1,2019-02-01T07:30:00Z,28.9818,-94.9186,1017.26,11111222 
TABS,ioos:station:wmo:42043:1,2019-02-01T08:00:00Z,28.9818,-94.9186,1017.59,11111222 
TABS,ioos:station:wmo:42043:1,2019-02-01T08:30:00Z,28.9818,-94.9186,1017.0,11111222 
TABS,ioos:station:wmo:42043:1,2019-02-01T09:00:00Z,28.9818,-94.9186,1017.05,11111222 
TABS,ioos:station:wmo:42043:1,2019-02-01T09:30:00Z,28.9818,-94.9186,1017.2,11111222 
TABS,ioos:station:wmo:42043:1,2019-02-01T10:00:00Z,28.9818,-94.9186,1017.6,11111222 
TABS,ioos:station:wmo:42043:1,2019-02-01T10:30:00Z,28.9818,-94.9186,1017.61,11111222 
TABS,ioos:station:wmo:42043:1,2019-02-01T11:00:00Z,28.9818,-94.9186,1017.94,11111222 
TABS,ioos:station:wmo:42043:1,2019-02-01T11:30:00Z,28.9818,-94.9186,1018.22,11111222 
TABS,ioos:station:wmo:42043:1,2019-02-01T12:00:00Z,28.9818,-94.9186,1018.54,11111222 
TABS,ioos:station:wmo:42043:1,2019-02-01T12:30:00Z,28.9818,-94.9186,1018.8,11111222 
TABS,ioos:station:wmo:42043:1,2019-02-01T13:00:00Z,28.9818,-94.9186,1019.27,11111222 
TABS,ioos:station:wmo:42043:1,2019-02-01T13:30:00Z,28.9818,-94.9186,1019.25,11111222 
TABS,ioos:station:wmo:42043:1,2019-02-01T14:00:00Z,28.9818,-94.9186,1019.93,11111222 
TABS,ioos:station:wmo:42043:1,2019-02-01T14:30:00Z,28.9818,-94.9186,1020.14,11111222 
TABS,ioos:station:wmo:42043:1,2019-02-01T15:00:00Z,28.9818,-94.9186,1020.37,11111222 
TABS,ioos:station:wmo:42043:1,2019-02-01T15:30:00Z,28.9818,-94.9186,1021.05,11111222 
TABS,ioos:station:wmo:42043:1,2019-02-01T16:00:00Z,28.9818,-94.9186,1021.38,11111222 
TABS,ioos:station:wmo:42043:1,2019-02-01T16:30:00Z,28.9818,-94.9186,1020.71,11111222 
TABS,ioos:station:wmo:42043:1,2019-02-01T17:00:00Z,28.9818,-94.9186,1021.22,11111222 
TABS,ioos:station:wmo:42043:1,2019-02-01T17:30:00Z,28.9818,-94.9186,1020.83,11111222 
TABS,ioos:station:wmo:42043:1,2019-02-01T18:00:00Z,28.9818,-94.9186,1020.08,11111222 
TABS,ioos:station:wmo:42043:1,2019-02-01T18:30:00Z,28.9818,-94.9186,1020.28,11111222 
TABS,ioos:station:wmo:42043:1,2019-02-01T19:00:00Z,28.9818,-94.9186,1019.58,11111222 
TABS,ioos:station:wmo:42043:1,2019-02-01T19:30:00Z,28.9818,-94.9186,1019.52,11111222 
TABS,ioos:station:wmo:42043:1,2019-02-01T20:00:00Z,28.9818,-94.9186,1019.38,11111222 
TABS,ioos:station:wmo:42043:1,2019-02-01T20:30:00Z,28.9818,-94.9186,1018.88,11111222 
TABS,ioos:station:wmo:42043:1,2019-02-01T21:00:00Z,28.9818,-94.9186,1019.01,11111222 
TABS,ioos:station:wmo:42043:1,2019-02-01T21:30:00Z,28.9818,-94.9186,1019.53,11111222 
TABS,ioos:station:wmo:42043:1,2019-02-01T22:00:00Z,28.9818,-94.9186,1019.67,11111222 
TABS,ioos:station:wmo:42043:1,2019-02-01T22:30:00Z,28.9818,-94.9186,1019.18,11111222 
TABS,ioos:station:wmo:42043:1,2019-02-01T23:00:00Z,28.9818,-94.9186,1018.82,11111222 
TABS,ioos:station:wmo:42043:1,2019-02-01T23:30:00Z,28.9818,-94.9186,1019.12,11111222 
TABS,ioos:station:wmo:42043:1,2019-02-02T00:00:00Z,28.9818,-94.9186,1019.31,11111222 
TABS,ioos:station:wmo:42043:1,2019-02-02T00:30:00Z,28.9818,-94.9186,1019.5,11111222 
TABS,ioos:station:wmo:42043:1,2019-02-02T01:00:00Z,28.9818,-94.9186,1019.85,11111222 
TABS,ioos:station:wmo:42043:1,2019-02-02T01:30:00Z,28.9818,-94.9186,1020.17,11111222 
TABS,ioos:station:wmo:42043:1,2019-02-02T02:00:00Z,28.9818,-94.9186,1020.33,11111222 
TABS,ioos:station:wmo:42043:1,2019-02-02T02:30:00Z,28.9818,-94.9186,1020.43,11111222 
TABS,ioos:station:wmo:42043:1,2019-02-02T03:00:00Z,28.9818,-94.9186,1020.27,11111222 
TABS,ioos:station:wmo:42043:1,2019-02-02T03:30:00Z,28.9818,-94.9186,1020.58,11111222 
TABS,ioos:station:wmo:42043:1,2019-02-02T04:00:00Z,28.9818,-94.9186,1020.39,11111222 
TABS,ioos:station:wmo:42043:1,2019-02-02T04:30:00Z,28.9818,-94.9186,1020.45,11111222 
TABS,ioos:station:wmo:42043:1,2019-02-02T05:00:00Z,28.9818,-94.9186,1020.35,11111222 
TABS,ioos:station:wmo:42043:1,2019-02-02T05:30:00Z,28.9818,-94.9186,1020.37,11111222 
TABS,ioos:station:wmo:42043:1,2019-02-02T06:00:00Z,28.9818,-94.9186,1020.18,11111222 
TABS,ioos:station:wmo:42043:1,2019-02-02T06:30:00Z,28.9818,-94.9186,1020.03,11111222 
TABS,ioos:station:wmo:42043:1,2019-02-02T07:00:00Z,28.9818,-94.9186,1020.05,11111222 
TABS,ioos:station:wmo:42043:1,2019-02-02T07:30:00Z,28.9818,-94.9186,1019.51,11111222 
TABS,ioos:station:wmo:42043:1,2019-02-02T08:00:00Z,28.9818,-94.9186,1019.71,11111222 
TABS,ioos:station:wmo:42043:1,2019-02-02T08:30:00Z,28.9818,-94.9186,1019.46,11111222 
TABS,ioos:station:wmo:42043:1,2019-02-02T09:00:00Z,28.9818,-94.9186,1019.48,11111222 
TABS,ioos:station:wmo:42043:1,2019-02-02T09:30:00Z,28.9818,-94.9186,1020.03,11111222 
TABS,ioos:station:wmo:42043:1,2019-02-02T10:00:00Z,28.9818,-94.9186,1019.69,11111222 
TABS,ioos:station:wmo:42043:1,2019-02-02T10:30:00Z,28.9818,-94.9186,1019.83,11111222 
TABS,ioos:station:wmo:42043:1,2019-02-02T11:00:00Z,28.9818,-94.9186,1019.86,11111222 
TABS,ioos:station:wmo:42043:1,2019-02-02T11:30:00Z,28.9818,-94.9186,1019.96,11111222 
TABS,ioos:station:wmo:42043:1,2019-02-02T12:00:00Z,28.9818,-94.9186,1020.02,11111222 
TABS,ioos:station:wmo:42043:1,2019-02-02T12:30:00Z,28.9818,-94.9186,1019.67,11111222 
TABS,ioos:station:wmo:42043:1,2019-02-02T13:00:00Z,28.9818,-94.9186,1019.47,11111222 
TABS,ioos:station:wmo:42043:1,2019-02-02T13:30:00Z,28.9818,-94.9186,1019.82,11111222 
TABS,ioos:station:wmo:42043:1,2019-02-02T14:00:00Z,28.9818,-94.9186,1020.08,11111222 
TABS,ioos:station:wmo:42043:1,2019-02-02T14:30:00Z,28.9818,-94.9186,1019.81,11111222 
TABS,ioos:station:wmo:42043:1,2019-02-02T15:00:00Z,28.9818,-94.9186,1020.16,11111222 
TABS,ioos:station:wmo:42043:1,2019-02-02T15:30:00Z,28.9818,-94.9186,1020.8,11111222 
TABS,ioos:station:wmo:42043:1,2019-02-02T16:00:00Z,28.9818,-94.9186,1020.59,11111222 
TABS,ioos:station:wmo:42043:1,2019-02-02T16:30:00Z,28.9818,-94.9186,1020.69,11111222 
TABS,ioos:station:wmo:42043:1,2019-02-02T17:00:00Z,28.9818,-94.9186,1020.32,11111222 
TABS,ioos:station:wmo:42043:1,2019-02-02T17:30:00Z,28.9818,-94.9186,1019.93,11111222 
TABS,ioos:station:wmo:42043:1,2019-02-02T18:00:00Z,28.9818,-94.9186,1019.67,11111222 
TABS,ioos:station:wmo:42043:1,2019-02-02T18:30:00Z,28.9818,-94.9186,1019.19,11111222 
TABS,ioos:station:wmo:42043:1,2019-02-02T19:00:00Z,28.9818,-94.9186,1018.66,11111222 
TABS,ioos:station:wmo:42043:1,2019-02-02T19:30:00Z,28.9818,-94.9186,1018.05,11111222 
TABS,ioos:station:wmo:42043:1,2019-02-02T20:00:00Z,28.9818,-94.9186,1017.78,11111222 
TABS,ioos:station:wmo:42043:1,2019-02-02T20:30:00Z,28.9818,-94.9186,1017.71,11111222 
TABS,ioos:station:wmo:42043:1,2019-02-02T21:00:00Z,28.9818,-94.9186,1017.13,11111222 
TABS,ioos:station:wmo:42043:1,2019-02-02T21:30:00Z,28.9818,-94.9186,1016.92,11111222 
TABS,ioos:station:wmo:42043:1,2019-02-02T22:00:00Z,28.9818,-94.9186,1017.09,11111222 
TABS,ioos:station:wmo:42043:1,2019-02-02T22:30:00Z,28.9818,-94.9186,1017.11,11111222 
TABS,ioos:station:wmo:42043:1,2019-02-02T23:00:00Z,28.9818,-94.9186,1017.2,11111222 
TABS,ioos:station:wmo:42043:1,2019-02-02T23:30:00Z,28.9818,-94.9186,1016.62,11111222 
TABS,ioos:station:wmo:42043:1,2019-02-03T00:00:00Z,28.9818,-94.9186,1016.47,11111222 
TABS,ioos:station:wmo:42043:1,2019-02-03T00:30:00Z,28.9818,-94.9186,1016.12,11111222 
TABS,ioos:station:wmo:42043:1,2019-02-03T01:00:00Z,28.9818,-94.9186,1016.22,11111222 
TABS,ioos:station:wmo:42043:1,2019-02-03T01:30:00Z,28.9818,-94.9186,1016.74,11111222 
TABS,ioos:station:wmo:42043:1,2019-02-03T02:00:00Z,28.9818,-94.9186,1016.71,11111222 
TABS,ioos:station:wmo:42043:1,2019-02-03T02:30:00Z,28.9818,-94.9186,1017.11,11111222 
TABS,ioos:station:wmo:42043:1,2019-02-03T03:00:00Z,28.9818,-94.9186,1016.99,11111222 
TABS,ioos:station:wmo:42043:1,2019-02-03T03:30:00Z,28.9818,-94.9186,1017.04,11111222 
TABS,ioos:station:wmo:42043:1,2019-02-03T04:00:00Z,28.9818,-94.9186,1016.71,11111222 
TABS,ioos:station:wmo:42043:1,2019-02-03T04:30:00Z,28.9818,-94.9186,1016.95,11111222 
TABS,ioos:station:wmo:42043:1,2019-02-03T05:00:00Z,28.9818,-94.9186,1016.86,11111222 
TABS,ioos:station:wmo:42043:1,2019-02-03T05:30:00Z,28.9818,-94.9186,1016.25,11111222 
TABS,ioos:station:wmo:42043:1,2019-02-03T06:00:00Z,28.9818,-94.9186,1016.31,11111222 
TABS,ioos:station:wmo:42043:1,2019-02-03T06:30:00Z,28.9818,-94.9186,1016.06,11111222 
TABS,ioos:station:wmo:42043:1,2019-02-03T07:00:00Z,28.9818,-94.9186,1015.77,11111222 
TABS,ioos:station:wmo:42043:1,2019-02-03T07:30:00Z,28.9818,-94.9186,1015.5,11111222 
TABS,ioos:station:wmo:42043:1,2019-02-03T08:00:00Z,28.9818,-94.9186,1015.18,11111222 
TABS,ioos:station:wmo:42043:1,2019-02-03T08:30:00Z,28.9818,-94.9186,1014.87,11111222 
TABS,ioos:station:wmo:42043:1,2019-02-03T09:00:00Z,28.9818,-94.9186,1014.77,11111222 
TABS,ioos:station:wmo:42043:1,2019-02-03T09:30:00Z,28.9818,-94.9186,1014.38,11111222 
TABS,ioos:station:wmo:42043:1,2019-02-03T10:00:00Z,28.9818,-94.9186,1014.0,11111222 
TABS,ioos:station:wmo:42043:1,2019-02-03T10:30:00Z,28.9818,-94.9186,1014.1,11111222 
TABS,ioos:station:wmo:42043:1,2019-02-03T11:00:00Z,28.9818,-94.9186,1013.98,11111222 
TABS,ioos:station:wmo:42043:1,2019-02-03T11:30:00Z,28.9818,-94.9186,1014.03,11111222 
TABS,ioos:station:wmo:42043:1,2019-02-03T12:00:00Z,28.9818,-94.9186,1014.21,11111222 
TABS,ioos:station:wmo:42043:1,2019-02-03T12:30:00Z,28.9818,-94.9186,1014.24,11111222 
TABS,ioos:station:wmo:42043:1,2019-02-03T13:00:00Z,28.9818,-94.9186,1014.54,11111222 
TABS,ioos:station:wmo:42043:1,2019-02-03T13:30:00Z,28.9818,-94.9186,1015.11,11111222 
TABS,ioos:station:wmo:42043:1,2019-02-03T14:00:00Z,28.9818,-94.9186,1015.25,11111222 
TABS,ioos:station:wmo:42043:1,2019-02-03T14:30:00Z,28.9818,-94.9186,1015.23,11111222 
TABS,ioos:station:wmo:42043:1,2019-02-03T15:00:00Z,28.9818,-94.9186,1015.44,11111222 
TABS,ioos:station:wmo:42043:1,2019-02-03T15:30:00Z,28.9818,-94.9186,1015.63,11111222 
TABS,ioos:station:wmo:42043:1,2019-02-03T16:00:00Z,28.9818,-94.9186,1015.88,11111222 
TABS,ioos:station:wmo:42043:1,2019-02-03T16:30:00Z,28.9818,-94.9186,1015.69,11111222 
TABS,ioos:station:wmo:42043:1,2019-02-03T17:00:00Z,28.9818,-94.9186,1015.49,11111222 
TABS,ioos:station:wmo:42043:1,2019-02-03T17:30:00Z,28.9818,-94.9186,1015.05,11111222 
TABS,ioos:station:wmo:42043:1,2019-02-03T18:00:00Z,28.9818,-94.9186,1014.94,11111222 
TABS,ioos:station:wmo:42043:1,2019-02-03T18:30:00Z,28.9818,-94.9186,1014.45,11111222 
TABS,ioos:station:wmo:42043:1,2019-02-03T19:00:00Z,28.9818,-94.9186,1013.83,11111222 
TABS,ioos:station:wmo:42043:1,2019-02-03T19:30:00Z,28.9818,-94.9186,1013.39,11111222 
TABS,ioos:station:wmo:42043:1,2019-02-03T20:00:00Z,28.9818,-94.9186,1012.82,11111222 
TABS,ioos:station:wmo:42043:1,2019-02-03T20:30:00Z,28.9818,-94.9186,1012.59,11111222 
TABS,ioos:station:wmo:42043:1,2019-02-03T21:00:00Z,28.9818,-94.9186,1012.68,11111222 
TABS,ioos:station:wmo:42043:1,2019-02-03T21:30:00Z,28.9818,-94.9186,1012.78,11111222 
TABS,ioos:station:wmo:42043:1,2019-02-03T22:00:00Z,28.9818,-94.9186,1012.72,11111222 
TABS,ioos:station:wmo:42043:1,2019-02-03T22:30:00Z,28.9818,-94.9186,1012.55,11111222 
TABS,ioos:station:wmo:42043:1,2019-02-03T23:00:00Z,28.9818,-94.9186,1012.67,11111222 
TABS,ioos:station:wmo:42043:1,2019-02-03T23:30:00Z,28.9818,-94.9186,1012.6,11111222 
TABS,ioos:station:wmo:42043:1,2019-02-04T00:00:00Z,28.9818,-94.9186,1012.83,11111222 
TABS,ioos:station:wmo:42043:1,2019-02-04T00:30:00Z,28.9818,-94.9186,1012.33,11111222 
TABS,ioos:station:wmo:42043:1,2019-02-04T01:00:00Z,28.9818,-94.9186,1012.71,11111222 
TABS,ioos:station:wmo:42043:1,2019-02-04T01:30:00Z,28.9818,-94.9186,1012.63,11111222 
TABS,ioos:station:wmo:42043:1,2019-02-04T02:00:00Z,28.9818,-94.9186,1012.76,11111222 
TABS,ioos:station:wmo:42043:1,2019-02-04T02:30:00Z,28.9818,-94.9186,1012.92,11111222 
TABS,ioos:station:wmo:42043:1,2019-02-04T03:00:00Z,28.9818,-94.9186,1012.83,11111222 
TABS,ioos:station:wmo:42043:1,2019-02-04T03:30:00Z,28.9818,-94.9186,1012.77,11111222 
TABS,ioos:station:wmo:42043:1,2019-02-04T04:00:00Z,28.9818,-94.9186,1012.66,11111222 
TABS,ioos:station:wmo:42043:1,2019-02-04T04:30:00Z,28.9818,-94.9186,1012.95,11111222 
TABS,ioos:station:wmo:42043:1,2019-02-04T05:00:00Z,28.9818,-94.9186,1013.06,11111222 
TABS,ioos:station:wmo:42043:1,2019-02-04T05:30:00Z,28.9818,-94.9186,1012.79,11111222 
TABS,ioos:station:wmo:42043:1,2019-02-04T06:00:00Z,28.9818,-94.9186,1012.49,11111222 
TABS,ioos:station:wmo:42043:1,2019-02-04T06:30:00Z,28.9818,-94.9186,1012.59,11111222 
TABS,ioos:station:wmo:42043:1,2019-02-04T07:00:00Z,28.9818,-94.9186,1012.44,11111222 
TABS,ioos:station:wmo:42043:1,2019-02-04T07:30:00Z,28.9818,-94.9186,1012.41,11111222 
TABS,ioos:station:wmo:42043:1,2019-02-04T08:00:00Z,28.9818,-94.9186,1012.12,11111222 
TABS,ioos:station:wmo:42043:1,2019-02-04T08:30:00Z,28.9818,-94.9186,1011.96,11111222 
TABS,ioos:station:wmo:42043:1,2019-02-04T09:00:00Z,28.9818,-94.9186,1011.84,11111222 
TABS,ioos:station:wmo:42043:1,2019-02-04T09:30:00Z,28.9818,-94.9186,1011.84,11111222 
TABS,ioos:station:wmo:42043:1,2019-02-04T10:00:00Z,28.9818,-94.9186,1011.85,11111222 
TABS,ioos:station:wmo:42043:1,2019-02-04T10:30:00Z,28.9818,-94.9186,1011.93,11111222 
TABS,ioos:station:wmo:42043:1,2019-02-04T11:00:00Z,28.9818,-94.9186,1012.02,11111222 
TABS,ioos:station:wmo:42043:1,2019-02-04T11:30:00Z,28.9818,-94.9186,1012.21,11111222 
TABS,ioos:station:wmo:42043:1,2019-02-04T12:00:00Z,28.9818,-94.9186,1012.66,11111222 
TABS,ioos:station:wmo:42043:1,2019-02-04T12:30:00Z,28.9818,-94.9186,1012.94,11111222 
TABS,ioos:station:wmo:42043:1,2019-02-04T13:00:00Z,28.9818,-94.9186,1013.28,11111222 
TABS,ioos:station:wmo:42043:1,2019-02-04T13:30:00Z,28.9818,-94.9186,1013.71,11111222 
TABS,ioos:station:wmo:42043:1,2019-02-04T14:00:00Z,28.9818,-94.9186,1014.16,11111222 
TABS,ioos:station:wmo:42043:1,2019-02-04T14:30:00Z,28.9818,-94.9186,1014.3,11111222 
TABS,ioos:station:wmo:42043:1,2019-02-04T15:00:00Z,28.9818,-94.9186,1014.45,11111222 
TABS,ioos:station:wmo:42043:1,2019-02-04T15:30:00Z,28.9818,-94.9186,1014.8,11111222 
TABS,ioos:station:wmo:42043:1,2019-02-04T16:00:00Z,28.9818,-94.9186,1015.12,11111222 
TABS,ioos:station:wmo:42043:1,2019-02-04T16:30:00Z,28.9818,-94.9186,1015.04,11111222 
TABS,ioos:station:wmo:42043:1,2019-02-04T17:00:00Z,28.9818,-94.9186,1014.79,11111222 
TABS,ioos:station:wmo:42043:1,2019-02-04T17:30:00Z,28.9818,-94.9186,1014.5,11111222 
TABS,ioos:station:wmo:42043:1,2019-02-04T18:00:00Z,28.9818,-94.9186,1014.09,11111222 
TABS,ioos:station:wmo:42043:1,2019-02-04T18:30:00Z,28.9818,-94.9186,1013.91,11111222 
TABS,ioos:station:wmo:42043:1,2019-02-04T19:00:00Z,28.9818,-94.9186,1013.69,11111222 
TABS,ioos:station:wmo:42043:1,2019-02-04T19:30:00Z,28.9818,-94.9186,1013.52,11111222 
TABS,ioos:station:wmo:42043:1,2019-02-04T20:00:00Z,28.9818,-94.9186,1013.39,11111222 
TABS,ioos:station:wmo:42043:1,2019-02-04T20:30:00Z,28.9818,-94.9186,1013.04,11111222 
TABS,ioos:station:wmo:42043:1,2019-02-04T21:00:00Z,28.9818,-94.9186,1012.83,11111222 
TABS,ioos:station:wmo:42043:1,2019-02-04T21:30:00Z,28.9818,-94.9186,1012.88,11111222 
TABS,ioos:station:wmo:42043:1,2019-02-04T22:00:00Z,28.9818,-94.9186,1012.89,11111222 
TABS,ioos:station:wmo:42043:1,2019-02-04T22:30:00Z,28.9818,-94.9186,1012.9,11111222 
TABS,ioos:station:wmo:42043:1,2019-02-04T23:00:00Z,28.9818,-94.9186,1012.82,11111222 
TABS,ioos:station:wmo:42043:1,2019-02-04T23:30:00Z,28.9818,-94.9186,1012.74,11111222 
TABS,ioos:station:wmo:42043:1,2019-02-05T00:00:00Z,28.9818,-94.9186,1012.71,11111222 
TABS,ioos:station:wmo:42043:1,2019-02-05T00:30:00Z,28.9818,-94.9186,1012.53,11111222 
TABS,ioos:station:wmo:42043:1,2019-02-05T01:00:00Z,28.9818,-94.9186,1012.61,11111222 
TABS,ioos:station:wmo:42043:1,2019-02-05T01:30:00Z,28.9818,-94.9186,1012.83,11111222 
TABS,ioos:station:wmo:42043:1,2019-02-05T02:00:00Z,28.9818,-94.9186,1012.68,11111222 
TABS,ioos:station:wmo:42043:1,2019-02-05T02:30:00Z,28.9818,-94.9186,1013.46,11111222 
TABS,ioos:station:wmo:42043:1,2019-02-05T03:00:00Z,28.9818,-94.9186,1013.31,11111222 
TABS,ioos:station:wmo:42043:1,2019-02-05T03:30:00Z,28.9818,-94.9186,1013.23,11111222 
TABS,ioos:station:wmo:42043:1,2019-02-05T04:00:00Z,28.9818,-94.9186,1013.49,11111222 
TABS,ioos:station:wmo:42043:1,2019-02-05T04:30:00Z,28.9818,-94.9186,1013.35,11111222 
TABS,ioos:station:wmo:42043:1,2019-02-05T05:00:00Z,28.9818,-94.9186,1013.41,11111222 
TABS,ioos:station:wmo:42043:1,2019-02-05T05:30:00Z,28.9818,-94.9186,1013.29,11111222 
TABS,ioos:station:wmo:42043:1,2019-02-05T06:00:00Z,28.9818,-94.9186,1013.37,11111222 
TABS,ioos:station:wmo:42043:1,2019-02-05T06:30:00Z,28.9818,-94.9186,1013.43,11111222 
TABS,ioos:station:wmo:42043:1,2019-02-05T07:00:00Z,28.9818,-94.9186,1013.36,11111222 
TABS,ioos:station:wmo:42043:1,2019-02-05T07:30:00Z,28.9818,-94.9186,1013.28,11111222 
TABS,ioos:station:wmo:42043:1,2019-02-05T08:00:00Z,28.9818,-94.9186,1013.09,11111222 
TABS,ioos:station:wmo:42043:1,2019-02-05T08:30:00Z,28.9818,-94.9186,1013.31,11111222 
TABS,ioos:station:wmo:42043:1,2019-02-05T09:00:00Z,28.9818,-94.9186,1013.38,11111222 
TABS,ioos:station:wmo:42043:1,2019-02-05T09:30:00Z,28.9818,-94.9186,1013.63,11111222 
TABS,ioos:station:wmo:42043:1,2019-02-05T10:00:00Z,28.9818,-94.9186,1013.47,11111222 
TABS,ioos:station:wmo:42043:1,2019-02-05T10:30:00Z,28.9818,-94.9186,1013.49,11111222 
TABS,ioos:station:wmo:42043:1,2019-02-05T11:00:00Z,28.9818,-94.9186,1013.45,11111222 
TABS,ioos:station:wmo:42043:1,2019-02-05T11:30:00Z,28.9818,-94.9186,1013.58,11111222 
TABS,ioos:station:wmo:42043:1,2019-02-05T12:00:00Z,28.9818,-94.9186,1013.97,11111222 
TABS,ioos:station:wmo:42043:1,2019-02-05T12:30:00Z,28.9818,-94.9186,1014.22,11111222 
TABS,ioos:station:wmo:42043:1,2019-02-05T13:00:00Z,28.9818,-94.9186,1014.59,11111222 
TABS,ioos:station:wmo:42043:1,2019-02-05T13:30:00Z,28.9818,-94.9186,1014.97,11111222 
TABS,ioos:station:wmo:42043:1,2019-02-05T14:00:00Z,28.9818,-94.9186,1015.35,11111222 
TABS,ioos:station:wmo:42043:1,2019-02-05T14:30:00Z,28.9818,-94.9186,1015.48,11111222 
TABS,ioos:station:wmo:42043:1,2019-02-05T15:00:00Z,28.9818,-94.9186,1015.74,11111222 
TABS,ioos:station:wmo:42043:1,2019-02-05T15:30:00Z,28.9818,-94.9186,1015.77,11111222 
TABS,ioos:station:wmo:42043:1,2019-02-05T16:00:00Z,28.9818,-94.9186,1015.69,11111222 
TABS,ioos:station:wmo:42043:1,2019-02-05T16:30:00Z,28.9818,-94.9186,1015.7,11111222 
TABS,ioos:station:wmo:42043:1,2019-02-05T17:00:00Z,28.9818,-94.9186,1015.78,11111222 
TABS,ioos:station:wmo:42043:1,2019-02-05T17:30:00Z,28.9818,-94.9186,1015.71,11111222 
TABS,ioos:station:wmo:42043:1,2019-02-05T18:00:00Z,28.9818,-94.9186,1015.31,11111222 
TABS,ioos:station:wmo:42043:1,2019-02-05T18:30:00Z,28.9818,-94.9186,1014.89,11111222 
TABS,ioos:station:wmo:42043:1,2019-02-05T19:00:00Z,28.9818,-94.9186,1014.42,11111222 
TABS,ioos:station:wmo:42043:1,2019-02-05T19:30:00Z,28.9818,-94.9186,1013.91,11111222 
TABS,ioos:station:wmo:42043:1,2019-02-05T20:00:00Z,28.9818,-94.9186,1013.48,11111222 
TABS,ioos:station:wmo:42043:1,2019-02-05T20:30:00Z,28.9818,-94.9186,1013.22,11111222 
TABS,ioos:station:wmo:42043:1,2019-02-05T21:00:00Z,28.9818,-94.9186,1013.24,11111222 
TABS,ioos:station:wmo:42043:1,2019-02-05T21:30:00Z,28.9818,-94.9186,1012.94,11111222 
TABS,ioos:station:wmo:42043:1,2019-02-05T22:00:00Z,28.9818,-94.9186,1012.64,11111222 
TABS,ioos:station:wmo:42043:1,2019-02-05T22:30:00Z,28.9818,-94.9186,1012.57,11111222 
TABS,ioos:station:wmo:42043:1,2019-02-05T23:00:00Z,28.9818,-94.9186,1012.72,11111222 
TABS,ioos:station:wmo:42043:1,2019-02-05T23:30:00Z,28.9818,-94.9186,1013.04,11111222 
TABS,ioos:station:wmo:42043:1,2019-02-06T00:00:00Z,28.9818,-94.9186,1013.24,11111222 
TABS,ioos:station:wmo:42043:1,2019-02-06T00:30:00Z,28.9818,-94.9186,1013.03,11111222 
TABS,ioos:station:wmo:42043:1,2019-02-06T01:00:00Z,28.9818,-94.9186,1012.99,11111222 
TABS,ioos:station:wmo:42043:1,2019-02-06T01:30:00Z,28.9818,-94.9186,1013.66,11111222 
TABS,ioos:station:wmo:42043:1,2019-02-06T02:00:00Z,28.9818,-94.9186,1013.81,11111222 
TABS,ioos:station:wmo:42043:1,2019-02-06T02:30:00Z,28.9818,-94.9186,1013.77,11111222 
TABS,ioos:station:wmo:42043:1,2019-02-06T03:00:00Z,28.9818,-94.9186,1013.91,11111222 
TABS,ioos:station:wmo:42043:1,2019-02-06T03:30:00Z,28.9818,-94.9186,1013.8,11111222 
TABS,ioos:station:wmo:42043:1,2019-02-06T04:00:00Z,28.9818,-94.9186,1014.07,11111222 
TABS,ioos:station:wmo:42043:1,2019-02-06T04:30:00Z,28.9818,-94.9186,1014.07,11111222 
TABS,ioos:station:wmo:42043:1,2019-02-06T05:00:00Z,28.9818,-94.9186,1014.1,11111222 
TABS,ioos:station:wmo:42043:1,2019-02-06T05:30:00Z,28.9818,-94.9186,1014.27,11111222 
TABS,ioos:station:wmo:42043:1,2019-02-06T06:00:00Z,28.9818,-94.9186,1013.59,11111222 
TABS,ioos:station:wmo:42043:1,2019-02-06T06:30:00Z,28.9818,-94.9186,1013.66,11111222 
TABS,ioos:station:wmo:42043:1,2019-02-06T07:00:00Z,28.9818,-94.9186,1013.61,11111222 
TABS,ioos:station:wmo:42043:1,2019-02-06T07:30:00Z,28.9818,-94.9186,1013.8,11111222 
TABS,ioos:station:wmo:42043:1,2019-02-06T08:00:00Z,28.9818,-94.9186,1013.67,11111222 
TABS,ioos:station:wmo:42043:1,2019-02-06T08:30:00Z,28.9818,-94.9186,1013.09,11111222 
TABS,ioos:station:wmo:42043:1,2019-02-06T09:00:00Z,28.9818,-94.9186,1013.33,11111222 
TABS,ioos:station:wmo:42043:1,2019-02-06T09:30:00Z,28.9818,-94.9186,1013.48,11111222 
TABS,ioos:station:wmo:42043:1,2019-02-06T10:00:00Z,28.9818,-94.9186,1013.48,11111222 
TABS,ioos:station:wmo:42043:1,2019-02-06T10:30:00Z,28.9818,-94.9186,1013.4,11111222 
TABS,ioos:station:wmo:42043:1,2019-02-06T11:00:00Z,28.9818,-94.9186,1013.32,11111222 
TABS,ioos:station:wmo:42043:1,2019-02-06T11:30:00Z,28.9818,-94.9186,1013.3,11111222 
TABS,ioos:station:wmo:42043:1,2019-02-06T12:00:00Z,28.9818,-94.9186,1013.2,11111222 
TABS,ioos:station:wmo:42043:1,2019-02-06T12:30:00Z,28.9818,-94.9186,1013.54,11111222 
TABS,ioos:station:wmo:42043:1,2019-02-06T13:00:00Z,28.9818,-94.9186,1014.02,11111222 
TABS,ioos:station:wmo:42043:1,2019-02-06T13:30:00Z,28.9818,-94.9186,1014.36,11111222 
TABS,ioos:station:wmo:42043:1,2019-02-06T14:00:00Z,28.9818,-94.9186,1014.32,11111222 
TABS,ioos:station:wmo:42043:1,2019-02-06T14:30:00Z,28.9818,-94.9186,1014.55,11111222 
TABS,ioos:station:wmo:42043:1,2019-02-06T15:00:00Z,28.9818,-94.9186,1015.03,11111222 
TABS,ioos:station:wmo:42043:1,2019-02-06T15:30:00Z,28.9818,-94.9186,1015.05,11111222 
TABS,ioos:station:wmo:42043:1,2019-02-06T16:00:00Z,28.9818,-94.9186,1015.26,11111222 
TABS,ioos:station:wmo:42043:1,2019-02-06T16:30:00Z,28.9818,-94.9186,1015.43,11111222 
TABS,ioos:station:wmo:42043:1,2019-02-06T17:00:00Z,28.9818,-94.9186,1015.24,11111222 
TABS,ioos:station:wmo:42043:1,2019-02-06T17:30:00Z,28.9818,-94.9186,1015.16,11111222 
TABS,ioos:station:wmo:42043:1,2019-02-06T18:00:00Z,28.9818,-94.9186,1015.07,11111222 
TABS,ioos:station:wmo:42043:1,2019-02-06T18:30:00Z,28.9818,-94.9186,1014.64,11111222 